Vancouver, British Columbia

3:23 AM PDT on September 26, 2017 (GMT -0700)
Vancouver International Airport

Weather History for CYVR - October, 2013

Change the Weather History Date:

Friday, October 4, 2013

  Actual Average Record
Temperature  
Mean Temperature 48 °F -  
Max Temperature 56 °F 55 °F 66 °F (2014)
Min Temperature 41 °F 43 °F 41 °F (2012)
Degree Days  
Heating Degree Days 16    
Moisture  
Dew Point 46 °F    
Average Humidity 88    
Maximum Humidity 100    
Minimum Humidity 74    
Precipitation  
Precipitation 0.00 in 0.16 in - ()
Sea Level Pressure  
Sea Level Pressure 30.45 in    
Wind  
Wind Speed 4 mph ()    
Max Wind Speed 8 mph    
Max Gust Speed -    
Visibility 15.3 miles    
Events      
Averages and records for this station are not official NWS values.
T = Trace of Precipitation, MM = Missing Value Source: Averaged Metar Reports

Daily Weather History Graph

Daily Weather History Graph

Search for Another Location

Airport or City:

Trip Planner

Search our weather history database for the weather conditions in past years. The results will help you decide how hot, cold, wet, or windy it might be!

Date:

Astronomy

Oct. 04, 2013 Rise Set
Actual Time 7:17 AM PDT 6:44 PM PDT
Civil Twilight 6:45 AM PDT 7:15 PM PDT
Nautical Twilight 6:08 AM PDT 7:52 PM PDT
Astronomical Twilight 5:31 AM PDT 8:29 PM PDT
Moon 7:00 AM PDT (10/4) 6:26 PM PDT (10/4)
Length of Visible Light 12h 30m
Length of Day
11h 26m
Waning Crescent, 0% of the Moon is Illuminated
Oct 4
Waning Crescent
Oct 4
New
Oct 11
First Quarter
Oct 18
Full
Oct 26
Last Quarter

Hourly Weather History & Observations

Time (PDT) Temp. Windchill Dew Point Humidity Pressure Visibility Wind Dir Wind Speed Gust Speed Precip Events Conditions
12:00 AM 44.6 °F - 42.8 °F 93% 30.47 in 15.0 mi East 2.3 mph - N/A   Clear
1:00 AM 44.6 °F 42.2 °F 42.8 °F 93% 30.47 in 15.0 mi East 4.6 mph - N/A   Clear
2:00 AM 46.4 °F 45.2 °F 42.8 °F 87% 30.48 in 15.0 mi NE 3.5 mph - N/A   Clear
3:00 AM 44.6 °F 43.1 °F 42.8 °F 93% 30.49 in 15.0 mi East 3.5 mph - N/A   Clear
4:00 AM 44.6 °F 43.1 °F 41.0 °F 87% 30.47 in 15.0 mi East 3.5 mph - N/A   Clear
5:00 AM 43 °F - 41 °F 92% 30.47 in 15 mi East 5.8 mph - -  
5:00 AM 42.8 °F 39.3 °F 41.0 °F 93% 30.47 in 15.0 mi East 5.8 mph - N/A   Clear
6:00 AM 44.6 °F 43.1 °F 42.8 °F 93% 30.48 in 15.0 mi ESE 3.5 mph - N/A   Mostly Cloudy
7:00 AM 42.8 °F 39.3 °F 42.8 °F 100% 30.48 in 15.0 mi East 5.8 mph - N/A   Partly Cloudy
8:00 AM 44.6 °F 40.7 °F 42.8 °F 93% 30.48 in 30.0 mi ESE 6.9 mph - N/A   Mostly Cloudy
9:00 AM 48.2 °F - 44.6 °F 87% 30.49 in 30.0 mi ESE 8.1 mph - N/A   Mostly Cloudy
10:00 AM 48.2 °F - 44.6 °F 87% 30.49 in 30.0 mi East 5.8 mph - N/A   Mostly Cloudy
11:00 AM 52 °F - 46 °F 74% 30.49 in 28 mi ESE 8.1 mph - -   Overcast
11:00 AM 51.8 °F - 46.4 °F 82% 30.48 in 30.0 mi ESE 6.9 mph - N/A   Overcast
12:00 PM 55.4 °F - 48.2 °F 77% 30.49 in 30.0 mi ESE 4.6 mph - N/A   Overcast
1:00 PM 55.4 °F - 48.2 °F 77% 30.46 in 30.0 mi SE 5.8 mph - N/A   Overcast
2:00 PM 55.4 °F - 48.2 °F 77% 30.45 in 30.0 mi SW 8.1 mph - N/A   Overcast
3:00 PM 53.6 °F - 50.0 °F 88% 30.43 in 30.0 mi SW 4.6 mph - N/A   Overcast
4:00 PM 53.6 °F - 50.0 °F 88% 30.42 in 30.0 mi WNW 4.6 mph - N/A   Overcast
5:00 PM 53 °F - 48 °F 79% 30.42 in 28 mi WSW 3.5 mph - -   Overcast
5:00 PM 53.6 °F - 48.2 °F 82% 30.41 in 30.0 mi WSW 3.5 mph - N/A   Overcast
6:00 PM 51.8 °F - 48.2 °F 88% 30.40 in 30.0 mi Calm Calm - N/A   Overcast
7:00 PM 51.8 °F - 48.2 °F 88% 30.40 in 20.0 mi WNW 3.5 mph - N/A   Overcast
8:00 PM 51.8 °F - 50.0 °F 94% 30.38 in 15.0 mi Calm Calm - N/A   Overcast
9:00 PM 53.6 °F - 48.2 °F 82% 30.38 in 15.0 mi Calm Calm - N/A   Overcast
10:00 PM 51.8 °F - 50.0 °F 94% 30.38 in 15.0 mi NW 4.6 mph - N/A   Overcast
11:00 PM 52 °F - 50 °F 90% 30.38 in 15 mi NW 2.3 mph - -   Overcast
11:00 PM 51.8 °F - 50.0 °F 94% 30.38 in 15.0 mi WNW 2.3 mph - N/A   Overcast